When you browse on this site, cookies collect data to enhance your experience and personalize the content and advertising you see.
Visit our Privacy Policy to learn more. By continuing to use the site, you agree to this use of cookies and data.
  • In Schweiz
  • Länderverzeichnis
  • Für 7 Tage
  • Wassertemperatur
  • Wetterkarte
  • Widgets
  • user-avatar
    Anmelden

    Stündliche Wetter Straßburg

    Heute, 15 November, Freitag

    Zeit Temperatur Niederschläge Wind Luftdruck Luftfeuchtigkeit
    00:00 +4°C° 0 mm 2 m/S 735 mmHg 82%
    01:00 +4°C° 0 mm 2 m/S 735 mmHg 85%
    02:00 +3°C° 0 mm 2 m/S 734 mmHg 86%
    03:00 +3°C° 0 mm 2 m/S 734 mmHg 87%
    04:00 +3°C° 0 mm 2 m/S 733 mmHg 88%
    05:00 +3°C° 0 mm 2 m/S 733 mmHg 88%
    06:00 +4°C° 0 mm 1 m/S 733 mmHg 89%
    07:00 +4°C° 0 mm 1 m/S 733 mmHg 89%
    08:00 +3°C° 0 mm 2 m/S 734 mmHg 86%
    09:00 +4°C° 0 mm 2 m/S 735 mmHg 83%
    10:00 +5°C° 0 mm 2 m/S 736 mmHg 80%
    11:00 +5°C° 0 mm 2 m/S 736 mmHg 78%
    12:00 +6°C° 0 mm 2 m/S 737 mmHg 75%
    13:00 +7°C° 0 mm 2 m/S 737 mmHg 72%
    14:00 +7°C° 0 mm 2 m/S 737 mmHg 74%
    15:00 +6°C° 0 mm 2 m/S 737 mmHg 76%
    16:00 +7°C° 0 mm 1 m/S 738 mmHg 78%
    17:00 +7°C° 0 mm 1 m/S 738 mmHg 79%
    18:00 +6°C° 0 mm 1 m/S 739 mmHg 81%
    19:00 +6°C° 0 mm 1 m/S 740 mmHg 82%
    20:00 +5°C° 0 mm 1 m/S 740 mmHg 83%
    21:00 +5°C° 0 mm 1 m/S 740 mmHg 85%
    22:00 +5°C° 0 mm 1 m/S 741 mmHg 86%
    23:00 +4°C° 0 mm 1 m/S 741 mmHg 87%

    Morgen, 16 November, Samstag

    Zeit Temperatur Niederschläge Wind Luftdruck Luftfeuchtigkeit
    00:00 +4°C° 0 mm 1 m/S 741 mmHg 88%
    01:00 +4°C° 0 mm 1 m/S 741 mmHg 89%
    02:00 +3°C° 0 mm 0 m/S 741 mmHg 89%
    03:00 +2°C° 0 mm 0 m/S 741 mmHg 90%
    04:00 +2°C° 0 mm 0 m/S 741 mmHg 90%
    05:00 +3°C° 0.3 mm 0 m/S 742 mmHg 90%
    06:00 +3°C° 0.3 mm 0 m/S 742 mmHg 91%
    07:00 +3°C° 0.3 mm 0 m/S 743 mmHg 91%
    08:00 +4°C° 0.2 mm 0 m/S 743 mmHg 90%
    09:00 +4°C° 0.2 mm 0 m/S 744 mmHg 89%
    10:00 +6°C° 0.2 mm 1 m/S 745 mmHg 87%
    11:00 +7°C° 0 mm 1 m/S 745 mmHg 82%
    12:00 +8°C° 0 mm 1 m/S 745 mmHg 77%
    13:00 +9°C° 0 mm 1 m/S 746 mmHg 72%
    14:00 +9°C° 0 mm 1 m/S 746 mmHg 75%
    15:00 +8°C° 0 mm 1 m/S 746 mmHg 77%
    16:00 +7°C° 0 mm 0 m/S 746 mmHg 79%
    17:00 +6°C° 0 mm 0 m/S 746 mmHg 82%
    18:00 +6°C° 0 mm 1 m/S 746 mmHg 85%
    19:00 +5°C° 0 mm 1 m/S 746 mmHg 88%
    20:00 +5°C° 0 mm 1 m/S 746 mmHg 89%
    21:00 +5°C° 0 mm 1 m/S 746 mmHg 89%
    22:00 +5°C° 0 mm 1 m/S 746 mmHg 90%
    23:00 +4°C° 0 mm 1 m/S 746 mmHg 91%

    übermorgen, 17 November, Sonntag

    Zeit Temperatur Niederschläge Wind Luftdruck Luftfeuchtigkeit
    00:00 +4°C° 0 mm 1 m/S 746 mmHg 92%
    01:00 +3°C° 0 mm 2 m/S 745 mmHg 92%
    02:00 +3°C° 0 mm 2 m/S 745 mmHg 92%
    03:00 +3°C° 0 mm 2 m/S 744 mmHg 92%
    04:00 +2°C° 0 mm 3 m/S 744 mmHg 92%
    05:00 +2°C° 0 mm 3 m/S 743 mmHg 91%
    06:00 +2°C° 0 mm 3 m/S 743 mmHg 91%
    07:00 +3°C° 0 mm 3 m/S 742 mmHg 90%
    08:00 +3°C° 0 mm 3 m/S 742 mmHg 88%
    09:00 +3°C° 0 mm 4 m/S 741 mmHg 86%
    10:00 +4°C° 0 mm 4 m/S 740 mmHg 84%
    11:00 +4°C° 0 mm 4 m/S 739 mmHg 82%
    12:00 +4°C° 0 mm 4 m/S 739 mmHg 80%
    13:00 +4°C° 0 mm 3 m/S 738 mmHg 78%
    14:00 +4°C° 0.1 mm 3 m/S 738 mmHg 81%
    15:00 +4°C° 0.1 mm 3 m/S 737 mmHg 84%
    16:00 +5°C° 0.1 mm 2 m/S 737 mmHg 86%
    17:00 +5°C° 0 mm 2 m/S 737 mmHg 87%
    18:00 +5°C° 0 mm 2 m/S 737 mmHg 88%
    19:00 +5°C° 0 mm 2 m/S 737 mmHg 89%
    20:00 +5°C° 0 mm 2 m/S 738 mmHg 90%
    21:00 +4°C° 0 mm 2 m/S 738 mmHg 90%
    22:00 +4°C° 0 mm 2 m/S 739 mmHg 90%
    23:00 +4°C° 0 mm 2 m/S 739 mmHg 90%

    18 November, Montag

    Zeit Temperatur Niederschläge Wind Luftdruck Luftfeuchtigkeit
    00:00 +4°C° 0 mm 2 m/S 739 mmHg 90%
    01:00 +3°C° 0 mm 3 m/S 739 mmHg 90%
    02:00 +3°C° 0 mm 3 m/S 739 mmHg 89%
    03:00 +3°C° 0 mm 3 m/S 740 mmHg 89%
    04:00 +2°C° 0 mm 3 m/S 740 mmHg 88%
    05:00 +2°C° 0 mm 3 m/S 740 mmHg 89%
    06:00 +2°C° 0 mm 3 m/S 741 mmHg 90%
    07:00 +2°C° 0 mm 3 m/S 741 mmHg 91%
    08:00 +3°C° 0.1 mm 4 m/S 742 mmHg 90%
    09:00 +3°C° 0.1 mm 4 m/S 742 mmHg 89%
    10:00 +3°C° 0.1 mm 4 m/S 742 mmHg 89%
    11:00 +3°C° 0.1 mm 4 m/S 742 mmHg 88%
    12:00 +3°C° 0.1 mm 5 m/S 743 mmHg 87%
    13:00 +3°C° 0.1 mm 5 m/S 743 mmHg 86%
    14:00 +3°C° 0.3 mm 5 m/S 743 mmHg 87%
    15:00 +4°C° 0.3 mm 4 m/S 743 mmHg 88%
    16:00 +3°C° 0.3 mm 4 m/S 743 mmHg 89%
    17:00 +4°C° 0.1 mm 4 m/S 744 mmHg 87%
    18:00 +4°C° 0.1 mm 4 m/S 744 mmHg 86%
    19:00 +4°C° 0.1 mm 4 m/S 745 mmHg 85%
    20:00 +4°C° 0 mm 4 m/S 745 mmHg 85%
    21:00 +3°C° 0 mm 4 m/S 745 mmHg 84%
    22:00 +3°C° 0 mm 4 m/S 745 mmHg 83%
    23:00 +3°C° 0 mm 4 m/S 746 mmHg 84%

    19 November, Dienstag

    Zeit Temperatur Niederschläge Wind Luftdruck Luftfeuchtigkeit
    00:00 +3°C° 0 mm 4 m/S 746 mmHg 85%
    01:00 +3°C° 0 mm 3 m/S 747 mmHg 86%
    02:00 +2°C° 0 mm 3 m/S 747 mmHg 87%
    03:00 +2°C° 0 mm 3 m/S 747 mmHg 88%
    04:00 +3°C° 0 mm 2 m/S 747 mmHg 89%
    05:00 +3°C° 0 mm 2 m/S 747 mmHg 88%
    06:00 +3°C° 0 mm 2 m/S 748 mmHg 88%
    07:00 +2°C° 0 mm 3 m/S 748 mmHg 88%
    08:00 +3°C° 0 mm 3 m/S 748 mmHg 87%
    09:00 +3°C° 0 mm 3 m/S 749 mmHg 85%
    10:00 +4°C° 0 mm 3 m/S 749 mmHg 83%
    11:00 +4°C° 0 mm 3 m/S 749 mmHg 80%
    12:00 +5°C° 0 mm 3 m/S 749 mmHg 77%
    13:00 +5°C° 0 mm 3 m/S 749 mmHg 75%
    14:00 +6°C° 0 mm 2 m/S 749 mmHg 76%
    15:00 +6°C° 0 mm 2 m/S 748 mmHg 77%
    16:00 +6°C° 0 mm 2 m/S 748 mmHg 78%
    17:00 +5°C° 0 mm 2 m/S 748 mmHg 81%
    18:00 +5°C° 0 mm 1 m/S 748 mmHg 83%
    19:00 +4°C° 0 mm 1 m/S 748 mmHg 85%
    20:00 +4°C° 0 mm 1 m/S 748 mmHg 85%
    21:00 +4°C° 0 mm 1 m/S 748 mmHg 85%
    22:00 +4°C° 0 mm 1 m/S 748 mmHg 85%
    23:00 +3°C° 0 mm 1 m/S 748 mmHg 85%

    20 November, Mittwoch

    Zeit Temperatur Niederschläge Wind Luftdruck Luftfeuchtigkeit
    00:00 +3°C° 0 mm 1 m/S 748 mmHg 86%
    01:00 +3°C° 0 mm 1 m/S 748 mmHg 86%
    02:00 +3°C° 0 mm 1 m/S 747 mmHg 86%
    03:00 +3°C° 0 mm 1 m/S 747 mmHg 85%
    04:00 +3°C° 0 mm 1 m/S 747 mmHg 85%
    05:00 +3°C° 0 mm 1 m/S 747 mmHg 84%
    06:00 +2°C° 0 mm 2 m/S 747 mmHg 84%
    07:00 +2°C° 0 mm 2 m/S 747 mmHg 83%
    08:00 +3°C° 0 mm 2 m/S 747 mmHg 79%
    09:00 +4°C° 0 mm 2 m/S 747 mmHg 76%
    10:00 +5°C° 0 mm 2 m/S 747 mmHg 72%
    11:00 +5°C° 0.2 mm 2 m/S 746 mmHg 75%
    12:00 +5°C° 0.2 mm 2 m/S 746 mmHg 77%
    13:00 +5°C° 0.2 mm 2 m/S 746 mmHg 79%
    14:00 +5°C° 0.1 mm 2 m/S 746 mmHg 78%
    15:00 +6°C° 0.1 mm 2 m/S 745 mmHg 77%
    16:00 +6°C° 0.1 mm 2 m/S 745 mmHg 76%
    17:00 +6°C° 0 mm 2 m/S 745 mmHg 75%
    18:00 +6°C° 0 mm 1 m/S 745 mmHg 75%
    19:00 +5°C° 0 mm 1 m/S 745 mmHg 75%
    20:00 +6°C° 0 mm 1 m/S 745 mmHg 73%
    21:00 +6°C° 0 mm 1 m/S 745 mmHg 71%
    22:00 +5°C° 0 mm 2 m/S 745 mmHg 69%
    23:00 +5°C° 0 mm 2 m/S 745 mmHg 70%
    Mehr zeigen